Other Public Products
Issued by NWS Charleston, SC

Current Version | Previous Version | Graphics & Text | Print | Product List | Glossary On
Versions: 1 2 3 4 5 6 7 8 9 10 11 12 13 14 15 16 17 18 19 20 21 22 23 24 25 26 27 28 29 30 31 32 33 34 35 36 37 38 39 40 41 42 43 44 45 46 47 48 49 50
000
FPUS82 KCHS 270212
OPUCHS

TEST...KCHS/KSAV Gateway Observations...TEST
National Weather Service Charleston SC
1000 PM EDT WED JUL 26 2017

NOTE: "fair" indicates few or no clouds below 12,000 feet with no
significant weather and/or obstructions to visibility.

SCZ050-WAZ558-NCZ071-TXZ119-213-PAZ071-DCZ001-FLZ074-172-MI076-
NYZ176-178-MAZ016-IL014-TNZ027-NJZ106-GAZ044-MD014-270300-

...Gateway Observations for Charleston International...

CITY           SKY/WX    TMP DP  RH WIND       PRES   REMARKS
Chas Airport   CLOUDY    79  74  84 E6        30.07S
Seattle        MOSUNNY   80  55  42 W6        30.03S
Charlotte      PTCLDY    82  72  71 S5        30.11R
Dallas DFW     CLOUDY    92  66  42 SE8       29.97R HX  94
Dallas Love    CLOUDY    93  69  45 SE17      29.98R HX  98
Philladelphia  MOCLDY    70  61  73 SE8       30.15R
Wash National  PTCLDY    77  69  76 SE8       30.11R
Baltimore      MOCLDY    74  67  78 SE10      30.11R
Miami          PTCLDY    86  76  71 E12       30.05R HX  96
Detroit        CLOUDY    73  66  78 S9        30.04S
Newark         MOCLDY    69  59  70 S8        30.14S
Laguardia      MOCLDY    70  58  65 S10       30.14S
J F K          PTCLDY    68  60  75 S6        30.16R
Boston Logan   MOCLDY    69  58  67 S13       30.13R
Ft. Lauderdale PTCLDY    85  76  74 SE13      30.04R HX  94
Chicago O`Hare CLOUDY    79  70  74 S8        29.97S
Chicago Midway CLOUDY    81  71  71 SE8       29.97F
Houston Bush   PTCLDY    87  72  60 S8        30.04R HX  93
Houston Hobby  PTCLDY    86  73  65 S6        30.04R HX  93
Nashville      CLOUDY    84  71  65 S5        30.04S
Atlanta        PTCLDY    77  67  71 SE5       30.09R

$$

GAZ044-118-TXZ119-213-NCZ071-DCZ001-MDZ014-506-PAZ021-071-NJZ106-
NYZ176-178-MAZ106-OHZ011-021-055-MIZ076-KYZ091-ILZ014-INZ047-
MNZ060-ONZ431-270300-

...Gateway Observations for Savannah International...

CITY           SKY/WX    TMP DP  RH WIND       PRES   REMARKS
Savannah Arpt  PTCLDY    78  72  81 E3        30.07R
Atlanta        PTCLDY    77  67  71 SE5       30.09R
Charlotte      PTCLDY    82  72  71 S5        30.11R
Dallas DFW     CLOUDY    92  66  42 SE8       29.97R HX  94
Houston Bush   PTCLDY    87  72  60 S8        30.04R HX  93
Wash National  PTCLDY    77  69  76 SE8       30.11R
Wash Dulles    MOCLDY    75  65  70 SE6       30.10R
Baltimore      MOCLDY    74  67  78 SE10      30.11R
Philadelphia   MOCLDY    70  61  73 SE8       30.15R
Newark         MOCLDY    69  59  70 S8        30.14S
Laguardia      MOCLDY    70  58  65 S10       30.14S
J F K          PTCLDY    68  60  75 S6        30.16R
Boston         MOCLDY    69  58  67 S13       30.13R
Pittsburg      MOCLDY    72  65  78 CALM      30.08F
Akron          MOCLDY    73  61  65 SW3       30.08S
Cleveland      CLOUDY    75  65  70 E6        30.08S
Cincinnati     CLOUDY    78  72  81 SE5       30.03F
Columbus       PTCLDY    70  66  89 CALM      30.05F
Detroit        CLOUDY    73  66  78 S9        30.04S
Chicago O`Hare CLOUDY    79  70  74 S8        29.97S
Minneapolis    PTCLDY    77  60  55 N7        30.00R
Indianapolis   MOCLDY    79  71  76 SE5       30.00F
Toronto Canada LGT RAIN  66  63  88 SE5       30.02R

$$




USA.gov is the U.S. government's official web portal to all federal, state and local government web resources and services.